Home   Weather   Melbourne   Past weeks
Flag for USA

Past Weather in Melbourne, Tennessee, USA — Yesterday and Last 2 Weeks

Now
61 °F

Passing clouds.


Feels Like: 61 °F
Forecast: 74 / 47 °F
Wind: 5 mph from North

Location: McGhee Tyson Airport
Current Time: Sep 21, 2020 at 12:16:56 pm
Latest Report: Sep 21, 2020 at 10:53 am
Visibility: 10 mi
Pressure30.42 "Hg
Humidity: 60%
Dew Point: 47 °F
Location of MelbourneLocation

Past Weather in Melbourne — Graph

°F

Melbourne Temperature Yesterday

Maximum temperature yesterday: 73 °F (at 2:53 pm)
Minimum temperature yesterday: 56 °F (at 3:20 am)
Average temperature yesterday: 63 °F

High & Low Weather Summary for the Past Weeks

 TemperatureHumidityPressure
High89 °F (Sep 10, 4:53 pm)100% (Sep 10, 4:53 am)30.42 "Hg (Sep 10, 4:53 am)
Low47 °F (Sep 21, 6:53 am)36% (Sep 6, 4:53 pm)29.79 "Hg (Sep 17, 4:53 pm)
Average72 °F79%30.07 "Hg
* Reported Sep 6 10:53 am — Sep 21 10:53 am, Melbourne. Weather by CustomWeather, © 2020

Note: Actual official high and low records may vary slightly from our data, if they occured in-between our weather recording intervals... More about our weather records

Melbourne Weather History for the Previous 24 Hours

Scroll right to see more
 ConditionsComfort  
Time TempWeatherWind HumidityBarometerVisibility
10:53 am
Mon, Sep 21
61 °FPassing clouds.5 mph60%30.42 "Hg10 mi
9:53 am56 °FPassing clouds.3 mph72%30.41 "Hg10 mi
8:53 am52 °FSunny.No wind86%30.40 "Hg10 mi
7:53 am48 °FPassing clouds.No wind93%30.38 "Hg10 mi
6:53 am47 °FClear.No wind97%30.36 "Hg10 mi
5:53 am48 °FClear.3 mph96%30.35 "Hg10 mi
4:53 am51 °FPassing clouds.6 mph77%30.34 "Hg10 mi
3:53 am53 °FClear.3 mph74%30.33 "Hg10 mi
2:53 am53 °FClear.3 mph77%30.32 "Hg10 mi
1:53 am54 °FClear.6 mph77%30.31 "Hg10 mi
12:53 am57 °FClear.9 mph69%30.30 "Hg10 mi
11:53 pm
Sun, Sep 20
58 °FClear.3 mph67%30.30 "Hg10 mi
10:53 pm60 °FPassing clouds.5 mph62%30.29 "Hg10 mi
7:53 pm66 °FClear.8 mph52%30.26 "Hg10 mi
6:53 pm70 °FPassing clouds.10 mph49%30.24 "Hg10 mi
5:53 pm73 °FPassing clouds.10 mph44%30.24 "Hg10 mi
4:53 pm73 °FPassing clouds.14 mph41%30.24 "Hg10 mi
3:53 pm73 °FSunny.12 mph44%30.24 "Hg10 mi
2:53 pm73 °FSunny.10 mph46%30.26 "Hg10 mi
1:53 pm72 °FPassing clouds.14 mph52%30.27 "Hg10 mi
12:53 pm69 °FPassing clouds.12 mph59%30.28 "Hg10 mi
Weather by CustomWeather, © 2020

See weather overview